Weather Roundup
Issued by NWS Springfield, MO

Home | Current Version | Previous Version | Text Only | Print | Product List | Glossary On
Versions: 1 2 3 4 5 6 7 8 9 10 11 12 13 14 15 16 17 18 19 20 21 22 23 24 25 26 27 28 29 30 31 32 33 34 35 36 37 38 39 40 41 42 43 44 45 46 47 48 49 50
000
NZUS99 KSGF 250507
HRRSGF

HOURLY WEATHER
NATIONAL WEATHER SERVICE SPRINGFIELD MO
1200 AM CDT WED APR 25 2018

......SGF CWA......

CITY           SKY/WX    TMP DP  RH WIND       PRES   REMARKS
SPRINGFIELD    CLEAR     53  39  59 CALM      30.06F
JOPLIN         CLEAR     54  43  66 N8        30.10R
WEST PLAINS    CLEAR     53  46  77 CALM      30.05F
ROLLA          CLOUDY    56  44  64 W3        30.04F
OSAGE BEACH    CLOUDY    54  45  71 W5        30.06S
BRANSON        PTCLDY    57  39  51 CALM      30.08F

......SURROUNDING SGF CWA......

CITY           SKY/WX    TMP DP  RH WIND       PRES   REMARKS
CHANUTE        CLOUDY    57  47  69 NW9       30.13S
PARSONS        CLOUDY    57  47  69 N9        30.13S
COFFEYVILLE    CLOUDY    60  47  61 N10       30.11F
EMPORIA        CLOUDY    53  47  79 NW9       30.16F
GROVE OK       CLEAR     55  43  62 CALM      30.09S
ROGERS AR      CLEAR     60  38  43 CALM      30.10R
SILOAM SPRINGS CLEAR     56  43  61 CALM      30.10R
HARRISON AR    PTCLDY    61  40  45 CALM      30.08S
NEAR YELLVILLE CLEAR     55  48  77 CALM      30.06F

......KANSAS AND MISSOURI......

CITY           SKY/WX    TMP DP  RH WIND       PRES   REMARKS
KANSAS CTY INT CLOUDY    58  46  64 N15       30.11F
DOWNTOWN KC    CLOUDY    61  45  55 NW7       30.11F
COLUMBIA       CLOUDY    62  35  36 NW6       30.04S
SEDALIA        CLOUDY    64  45  49 NW13G21   30.08R
ST JOSEPH      CLOUDY    57  48  72 N17       30.13F
ST LOUIS       PTCLDY    54  43  66 CALM      30.00S
SPIRIT OF STL  CLEAR     48  46  93 W3        29.99F
KIRKSVILLE     CLOUDY    59  45  59 N12G22    30.07F
WICHITA        CLOUDY    50  45  83 N16       30.20S
TOPEKA         CLOUDY    56  49  77 W6        30.15F
OLATHE         CLOUDY    59  45  59 N13       30.11F

......TENNESSEE......

CITY           SKY/WX    TMP DP  RH WIND       PRES   REMARKS
MEMPHIS        FAIR      56  55  97 CALM      30.03F
NASHVILLE      CLOUDY    58  53  84 NW9       29.97S

......ARKANSAS.......

CITY           SKY/WX    TMP DP  RH WIND       PRES   REMARKS
FAYETTEVILLE   CLEAR     50  44  80 S3        30.09R
FT SMITH       CLEAR     60  46  59 CALM      30.06S
LITTLE ROCK    CLEAR     60  57  89 CALM      30.05S

......OKLAHOMA.......

CITY           SKY/WX    TMP DP  RH WIND       PRES   REMARKS
TULSA          CLOUDY    60  46  59 N7        30.10S
PONCA CITY     CLOUDY    55  47  74 NW8       30.17R
MCALESTER      PTCLDY    53  48  83 CALM      30.08F
OKLAHOMA CITY  CLOUDY    61  48  62 N21G26    30.13F

......IOWA............

CITY           SKY/WX    TMP DP  RH WIND       PRES   REMARKS
DES MOINES     MOCLDY    54  42  64 N15       30.16S
QUAD CITIES    FAIR      64  39  39 N12       30.00S

......ILLINOIS........

CITY           SKY/WX    TMP DP  RH WIND       PRES   REMARKS
QUINCY         PTCLDY    59  38  45 NW10      30.02S
CHICAGO        FAIR      48  44  86 N10       30.02R





USA.gov is the U.S. government's official web portal to all federal, state and local government web resources and services.